EW6300 Weather Reports


time (UTC)temp
C
wind
direction
speed
KPH
gust
KPH
rain 1hr
cm
rain 24hr
cm
rain mn
cm
humidity
%
barometer
mb
20260505171542 11 285 3.2 16.1 0.00 0.00 0.00 26 1009.3
20260505171505 12 218 3.2 19.3 0.00 0.28 0.00 22 1000.1
20260505170059 11 213 3.2 8.0 0.00 0.28 0.00 25 1000.1
20260505170041 11 0 0.0 17.7 0.00 0.00 0.00 28 1009.6
20260505164555 11 196 4.8 12.9 0.00 0.33 0.00 25 1000.2
20260505164540 10 309 8.0 25.7 0.00 0.00 0.00 26 1009.8
20260505163052 11 111 0.0 4.8 0.00 0.33 0.00 28 1000.5
20260505163037 10 290 1.6 12.9 0.00 0.00 0.00 28 1009.9
20260505161548 10 119 0.0 4.8 0.00 0.33 0.00 30 1000.7
20260505161534 10 309 6.4 14.5 0.00 0.00 0.00 32 1010.2
20260505153045 8 120 0.0 4.8 0.00 0.38 0.00 36 1001.8
20260505151536 8 149 0.0 4.8 0.00 0.38 0.00 36 1002.3
20260505124540 0 0 0.0 1.6 0.00 0.25 0.00 81 1013.4
20260505124502 1 225 0.0 0.0 0.00 0.46 0.00 74 1004.5
20260505123114 1 225 0.0 0.0 0.00 0.46 0.00 74 1004.4
20260505123047 0 0 0.0 0.0 0.00 0.25 0.00 82 1013.1
20260505121600 0 224 0.0 0.0 0.00 0.46 0.00 76 1004.3
20260505121537 0 0 0.0 0.0 0.00 0.25 0.00 81 1013.1
20260505114559 0 208 0.0 0.0 0.00 0.51 0.00 78 1004.0
20260505114541 0 0 0.0 0.0 0.00 0.30 0.00 78 1013.0
20260505113104 0 207 0.0 0.0 0.00 0.51 0.00 80 1003.8
20260505113040 0 0 0.0 0.0 0.00 0.30 0.00 81 1012.7
20260505111556 0 207 0.0 0.0 0.00 0.51 0.00 79 1003.9
20260505111540 0 0 0.0 0.0 0.00 0.30 0.00 79 1012.8
20260505101553 0 207 0.0 0.0 0.00 0.56 0.00 78 1003.8
20260505101541 0 0 0.0 0.0 0.00 0.36 0.00 77 1012.8
20260505100056 0 207 0.0 0.0 0.00 0.56 0.00 79 1003.7
20260505100041 0 0 0.0 0.0 0.00 0.36 0.00 75 1012.7
20260505094550 1 207 0.0 0.0 0.00 0.61 0.00 79 1003.7
20260505094540 0 0 0.0 0.0 0.00 0.61 0.00 81 1012.8
20260505093047 1 207 0.0 0.0 0.00 0.61 0.00 78 1003.8
20260505093037 0 0 0.0 0.0 0.00 0.61 0.00 80 1013.0
20260505091603 1 207 0.0 0.0 0.00 0.61 0.00 77 1003.6
20260505091538 0 134 0.0 1.6 0.00 0.61 0.00 78 1012.8
20260505090050 1 207 0.0 0.0 0.00 0.61 0.00 76 1003.9
20260505090037 0 0 0.0 3.2 0.00 0.61 0.00 77 1012.9
20260505084559 1 207 0.0 0.0 0.00 0.69 0.00 74 1003.9
20260505084537 1 0 0.0 1.6 0.00 0.74 0.00 77 1013.0
20260505083057 2 207 0.0 0.0 0.00 0.69 0.00 74 1004.0
20260505083032 1 0 0.0 3.2 0.00 0.74 0.00 76 1013.3
20260505081553 2 207 0.0 0.0 0.00 0.69 0.00 73 1004.1
20260505081540 1 153 0.0 3.2 0.00 0.74 0.00 73 1013.3
20260505080044 2 207 0.0 0.0 0.00 0.69 0.00 72 1004.1
20260505080038 1 149 0.0 1.6 0.00 0.74 0.00 73 1013.3
20260505074543 1 0 0.0 0.0 0.00 0.74 0.00 71 1013.7
20260505074533 2 207 0.0 0.0 0.00 0.71 0.00 72 1004.3
20260505073047 2 207 0.0 0.0 0.00 0.71 0.00 70 1004.4
20260505071543 2 207 0.0 0.0 0.00 0.71 0.00 70 1004.2
20260505071541 2 0 0.0 0.0 0.00 0.74 0.00 71 1013.7
20260505070042 2 207 0.0 0.0 0.00 0.74 0.00 73 1013.8
20260505070040 2 207 0.0 0.0 0.00 0.71 0.00 70 1004.3
20260505064601 2 0 0.0 3.2 0.00 0.74 0.00 71 1013.7
20260505064534 3 207 0.0 0.0 0.00 0.71 0.00 70 1004.2
20260505063037 2 0 0.0 0.0 0.00 0.74 0.00 72 1013.9
20260505061542 2 0 0.0 0.0 0.00 0.74 0.00 68 1013.6
20260505061530 3 207 0.0 0.0 0.00 0.71 0.00 67 1004.1
20260505060048 3 207 0.0 0.0 0.00 0.71 0.00 66 1004.1
20260505060042 2 0 0.0 0.0 0.00 0.74 0.00 71 1013.6
20260505054549 2 0 0.0 0.0 0.00 0.74 0.74 70 1013.8
20260505054523 3 207 0.0 0.0 0.00 0.71 0.71 65 1004.1
20260505053041 2 0 0.0 0.0 0.00 0.74 0.74 68 1013.8
20260505053023 3 207 0.0 0.0 0.00 0.71 0.71 65 1004.4
20260505051541 3 0 0.0 0.0 0.00 0.74 0.74 65 1013.8
20260505051523 3 207 0.0 0.0 0.00 0.71 0.71 63 1004.4
20260505041542 3 327 0.0 3.2 0.00 0.74 0.74 57 1014.4
20260505041521 5 207 0.0 0.0 0.00 0.71 0.71 54 1005.0
20260505040040 4 0 0.0 1.6 0.00 0.74 0.74 51 1014.3
20260505040023 5 207 0.0 0.0 0.00 0.71 0.71 54 1004.9
20260505034543 4 0 0.0 0.0 0.00 0.74 0.74 57 1014.0
20260505034519 5 207 0.0 0.0 0.00 0.71 0.71 53 1004.6
20260505033043 5 0 0.0 0.0 0.00 0.74 0.74 53 1014.1
20260505033019 6 207 0.0 0.0 0.00 0.71 0.71 51 1004.6
20260505031542 5 0 0.0 0.0 0.00 0.74 0.74 52 1014.1
20260505031519 6 207 0.0 0.0 0.00 0.71 0.71 50 1004.6
20260505030046 6 0 0.0 3.2 0.00 0.74 0.74 42 1013.6
20260505030017 7 207 0.0 0.0 0.00 0.71 0.71 46 1004.0
20260505024537 6 0 0.0 3.2 0.00 0.74 0.74 50 1013.7
20260505024518 7 207 0.0 0.0 0.00 0.71 0.71 43 1004.2
20260505023044 6 112 3.2 8.0 0.00 0.74 0.74 40 1013.6
20260505023017 9 206 0.0 0.0 0.00 0.71 0.71 40 1004.0
20260505021537 7 0 0.0 0.0 0.00 0.74 0.74 45 1013.5
20260505021516 10 173 0.0 3.2 0.00 0.71 0.71 30 1004.0
20260505020054 8 0 0.0 0.0 0.00 0.74 0.74 39 1013.4
20260505020015 10 183 1.6 11.3 0.00 0.71 0.71 29 1003.8
20260505014543 9 0 0.0 0.0 0.00 0.74 0.74 38 1013.3
20260505014530 10 228 0.0 3.2 0.00 0.71 0.71 30 1003.6
20260505013042 10 0 0.0 3.2 0.00 0.74 0.74 32 1013.0
20260505013014 11 229 0.0 4.8 0.00 0.71 0.71 29 1003.3
20260505011540 10 0 0.0 14.5 0.00 0.74 0.74 27 1013.1
20260505011515 11 202 0.0 1.6 0.00 0.71 0.71 29 1003.4
20260505010040 11 309 4.8 11.3 0.00 0.74 0.74 28 1012.9
20260505010014 11 178 0.0 3.2 0.00 0.71 0.71 29 1003.1
20260505004559 11 0 0.0 6.4 0.00 0.74 0.74 31 1013.1
20260505004513 11 218 0.0 3.2 0.00 0.71 0.71 29 1003.1
20260505003042 11 312 3.2 6.4 0.00 0.74 0.74 31 1013.1
20260505003012 12 205 0.0 1.6 0.00 0.71 0.71 30 1003.1
20260505001542 11 355 1.6 9.7 0.00 0.74 0.74 30 1012.9
20260505001513 12 186 0.0 1.6 0.00 0.71 0.71 30 1003.0
20260505000038 12 127 0.0 6.4 0.00 0.74 0.74 31 1013.1
20260505000012 12 151 0.0 1.6 0.00 0.71 0.71 31 1003.1
20260504234547 11 346 1.6 11.3 0.00 0.74 0.74 30 1013.2
20260504234510 12 195 0.0 4.8 0.00 0.71 0.71 31 1003.1
20260504233041 11 144 4.8 11.3 0.00 0.74 0.74 30 1013.0
20260504233013 12 143 0.0 4.8 0.00 0.71 0.71 31 1002.8
20260504231554 12 314 6.4 17.7 0.00 0.74 0.74 30 1013.0
20260504231509 12 200 0.0 3.2 0.00 0.71 0.71 30 1002.7
20260504230041 12 301 4.8 12.9 0.00 0.74 0.74 30 1012.9
20260504230009 12 211 3.2 16.1 0.00 0.71 0.71 31 1002.6
20260504224541 12 138 1.6 9.7 0.00 0.74 0.74 32 1012.9
20260504224516 12 190 0.0 17.7 0.00 0.71 0.71 32 1002.6
20260504223046 12 141 1.6 19.3 0.00 0.74 0.74 31 1013.1
20260504223007 12 175 0.0 14.5 0.00 0.71 0.71 31 1002.7
20260504221605 12 124 6.4 27.4 0.00 0.74 0.74 32 1012.9
20260504221506 12 223 1.6 9.7 0.00 0.71 0.71 32 1002.7
20260504220040 12 143 4.8 25.7 0.00 0.74 0.74 31 1013.1
20260504220006 12 175 3.2 14.5 0.00 0.71 0.71 32 1002.9
20260504214540 12 64 8.0 12.9 0.00 0.74 0.74 31 1013.2
20260504214504 12 221 0.0 12.9 0.03 0.71 0.71 33 1003.0
20260504213040 12 191 8.0 29.0 0.00 0.74 0.74 33 1013.4
20260504213008 12 150 1.6 4.8 0.03 0.71 0.71 35 1003.1
20260504211541 12 317 4.8 16.1 0.00 0.74 0.74 33 1013.5
20260504211501 12 172 3.2 16.1 0.03 0.71 0.71 33 1003.3
20260504210058 12 184 0.0 4.8 0.05 0.71 0.71 35 1003.6
20260504210047 12 152 8.0 17.7 0.00 0.74 0.74 33 1013.8
20260504204603 12 180 3.2 16.1 0.05 0.69 0.69 34 1003.7
20260504204540 12 311 4.8 20.9 0.00 0.74 0.74 31 1014.0
20260504203107 12 200 0.0 6.4 0.05 0.69 0.69 35 1003.9
20260504203037 12 356 6.4 27.4 0.00 0.74 0.74 31 1013.9
20260504201608 12 120 0.0 20.9 0.10 0.69 0.69 35 1004.0
20260504201534 12 114 8.0 19.3 0.00 0.74 0.74 30 1014.1
20260504200055 11 221 6.4 20.9 0.08 0.66 0.66 34 1004.1
20260504200041 12 27 8.0 30.6 0.00 0.74 0.74 32 1014.2
20260504194556 11 229 0.0 20.9 0.08 0.64 0.64 35 1004.1
20260504194549 12 86 4.8 16.1 0.00 0.74 0.74 32 1014.3
20260504193102 11 217 1.6 12.9 0.08 0.61 0.61 37 1004.0
20260504193046 12 19 3.2 14.5 0.00 0.74 0.74 37 1014.3
20260504191607 11 209 1.6 14.5 0.08 0.58 0.58 35 1004.2
20260504191604 11 41 4.8 16.1 0.00 0.74 0.74 33 1014.5
20260504190104 11 161 0.0 4.8 0.10 0.58 0.58 43 1004.2
20260504190039 12 9 8.0 22.5 0.00 0.74 0.74 39 1014.7
20260504184551 11 259 0.0 25.7 0.10 0.56 0.56 40 1004.4
20260504183044 11 134 0.0 8.0 0.08 0.53 0.53 52 1004.4
20260504183040 11 340 1.6 11.3 0.00 0.74 0.74 45 1015.1
20260504181541 10 282 3.2 6.4 0.00 0.74 0.74 57 1015.7
20260504180039 10 48 0.0 3.2 0.05 0.48 0.48 60 1005.1
20260504180037 9 283 3.2 12.9 0.00 0.74 0.74 67 1015.8
20260504174540 10 9 0.0 11.3 0.05 0.46 0.46 61 1005.6
20260504174535 8 20 8.0 14.5 0.00 0.74 0.74 65 1016.0
20260504173043 8 139 8.0 16.1 0.00 0.74 0.74 60 1016.1
20260504173033 9 22 8.0 17.7 0.05 0.46 0.46 65 1005.8